Regional Weather Roundup
Issued by NWS

Home | Current Version | Previous Version | Graphics & Text | Print | Product List | Glossary Off
Versions: 1 2 3 4 5 6 7 8 9 10 11 12 13 14 15 16 17 18 19 20 21 22 23 24 25 26 27 28 29 30 31 32 33 34 35 36 37 38 39 40 41 42 43 44 45 46 47 48 49 50

000
ASUS43 KLSX 300307
RWRMO

WEATHER SUMMARY FOR MISSOURI
NATIONAL WEATHER SERVICE SPRINGFIELD MO
1000 PM CDT MON JUN 29 2015

NOTE: "FAIR" INDICATES FEW OR NO CLOUDS BELOW 12,000 FEET WITH NO
       SIGNIFICANT WEATHER AND/OR OBSTRUCTIONS TO VISIBILITY.
       CURRENT SKY AND/OR WEATHER CONDITIONS ARE NOT AVAILABLE FOR
       CHILLICOTHE AND FARMINGTON.

MOZ001>031-035>038-043-044-053-054-300400-
...NORTHERN AND WESTERN MISSOURI...

CITY           SKY/WX    TMP DP  RH WIND       PRES   REMARKS
KANSAS CTY INT MOCLDY    79  63  57 CALM      29.92R
KANSAS C DTWN  LGT RAIN  79  68  69 CALM      29.90R
LEE`S SUMMIT   CLEAR     75  63  66 CALM      29.92R
ST JOSEPH      CLEAR     75  69  81 N3        29.91R
CHILLICOTHE      N/A     72  69  90 CALM      29.90R
KIRKSVILLE     CLEAR     69  65  86 W3        29.89R

$$
MOZ066>068-077>081-088>096-101>105-300400-
...SOUTHWEST MISSOURI...

CITY           SKY/WX    TMP DP  RH WIND       PRES   REMARKS
SPRINGFIELD    CLEAR     71  66  84 SW5       29.95R
JOPLIN         CLEAR     72  66  81 S3        29.95R

$$
MOZ032>034-039>042-045>050-055>058-069>072-300400-
...CENTRAL MISSOURI...

CITY           SKY/WX    TMP DP  RH WIND       PRES   REMARKS
COLUMBIA       CLEAR     75  67  76 W5        29.89R
JEFFERSON CITY PTCLDY    75  68  78 CALM      29.88R
ROLLA          CLEAR     69  66  90 W6        29.90R
SEDALIA        CLEAR     75  65  70 W5        29.92R
WHITEMAN AFB   CLEAR     76  67  73 W5        29.91R
WARRENSBURG    CLEAR     73  64  73 CALM      29.91R
OSAGE BEACH    CLEAR     72  66  83 W3        29.91R

$$
MOZ051-052-059>065-300400-
...EAST CENTRAL MISSOURI...

CITY           SKY/WX    TMP DP  RH WIND       PRES   REMARKS
ST LOUIS INTL  MOCLDY    76  66  71 SW3       29.87R
SPIRIT OF STL  MOCLDY    72  71  97 CALM      29.86R
ST CHARLES     CLEAR     73  71  93 S3        29.86R

$$
MOZ072>076-082>087-097>100-106>115-300400-
...SOUTH CENTRAL AND SOUTHEAST MISSOURI...

CITY           SKY/WX    TMP DP  RH WIND       PRES   REMARKS
CAPE GIRARDEAU CLEAR     75  69  81 CALM      29.87R
FARMINGTON     CLEAR     73  68  83 CALM      29.93R
POPLAR BLUFF   CLEAR     76  70  82 CALM      29.87R
WEST PLAINS    CLEAR     72  64  76 NW5       29.95R

$$



USA.gov is the U.S. government's official web portal to all federal, state and local government web resources and services.